This demonstration page uses our WeatherBlox Daily Observations layout. Learn more.

Left ArrowRight Arrow

Hourly Observations for April 21, 2020

Temp ( °F °C ) Dew Point ( °F °C ) Humidity (%) Winds ( mph kmh ) Pressure ( in mb ) Visibility ( mi km ) Precip ( " mm )
12:54 am 00:54 Clear 54 12.2 32 0 43 43 NNW 8 13 29.9 1013 10 16.0934 0 0
1:54 am 01:54 Clear 44 6.7 32 0 63 63 NNW 5 7 29.93 1013 10 16.0934 0 0
2:54 am 02:54 Clear 39 3.9 31 -0.6 73 73 NNW 6 9 29.95 1014 10 16.0934 0 0
3:54 am 03:54 Clear 39 3.9 31 -0.6 73 73 N 8 13 29.97 1015 10 16.0934 0 0
4:54 am 04:54 Clear 42 5.6 32 0 68 68 Calm 29.99 1016 10 16.0934 0 0
5:54 am 05:54 Clear 40 4.4 31 -0.6 70 70 Calm 30.01 1016 10 16.0934 0 0
6:54 am 06:54 Sunny 35 1.7 29 -1.7 78 78 Calm 30.04 1017 10 16.0934 0 0
7:54 am 07:54 Sunny 42 5.6 34 1.1 73 73 Calm 30.05 1018 10 16.0934 0 0
8:54 am 08:54 Sunny 49 9.4 34 1.1 56 56 Calm 30.07 1018 10 16.0934 0 0
9:54 am 09:54 Sunny 54 12.2 31 -0.6 42 42 SSE 6 9 30.06 1018 10 16.0934 0 0
10:54 am 10:54 Sunny 59 15 32 0 36 36 SSW 6 9 30.05 1018 10 16.0934 0 0
11:54 am 11:54 Sunny 62 16.7 34 1.1 35 35 VRB 6 9 30.06 1018 10 16.0934 0 0
12:54 pm 12:54 Sunny 65 18.3 32 0 29 29 VRB 3 6 30.03 1017 10 16.0934 0 0
1:54 pm 13:54 Sunny 70 21.1 32 0 25 25 Calm 30 1016 10 16.0934 0 0
2:54 pm 14:54 Sunny 72 22.2 32 0 23 23 VRB 5 7 29.98 1015 10 16.0934 0 0
3:54 pm 15:54 Sunny 74 23.3 32 0 21 21 undefined N/A 29.94 1014 10 16.0934 0 0
4:54 pm 16:54 Sunny 75 23.9 31 -0.6 20 20 SSW 9 15 29.91 1013 10 16.0934 0 0
5:54 pm 17:54 Mostly Cloudy 77 25 30 -1.1 18 18 undefined N/A 29.89 1012 10 16.0934 0 0
6:54 pm 18:54 Cloudy 74 23.3 31 -0.6 20 20 SSW 10 17 29.9 1012 10 16.0934 0 0
7:54 pm 19:54 Mostly Cloudy 73 22.8 32 0 22 22 SSW 9 15 29.88 1012 10 16.0934 0 0
8:54 pm 20:54 Clear 60 15.6 35 1.7 39 39 S 8 13 29.87 1011 10 16.0934 0 0
9:54 pm 21:54 Clear 58 14.4 36 2.2 44 44 S 12 19 29.88 1012 10 16.0934 0 0
10:54 pm 22:54 Clear 56 13.3 37 2.8 49 49 S 10 17 29.87 1011 10 16.0934 0 0
11:54 pm 23:54 Clear 60 15.6 37 2.8 42 42 S 15 24 29.86 1011 10 16.0934 0 0

Powered by AerisWeather